TimeCDT,TemperatureF,Dew PointF,Humidity,Sea Level PressureIn,VisibilityMPH,Wind Direction,Wind SpeedMPH,Gust SpeedMPH,PrecipitationIn,Events,Conditions,WindDirDegrees,DateUTC
12:52 AM,28.0,21.0,75,30.18,10.0,West,6.9,-,N/A,,Clear,270,2012-10-06 05:52:00
1:52 AM,28.0,21.0,75,30.19,10.0,WNW,10.4,-,N/A,,Clear,290,2012-10-06 06:52:00
2:52 AM,28.9,21.9,75,30.18,10.0,WNW,6.9,-,N/A,,Clear,290,2012-10-06 07:52:00
3:52 AM,27.0,21.0,78,30.18,10.0,West,6.9,-,N/A,,Clear,270,2012-10-06 08:52:00
4:52 AM,27.0,21.9,81,30.20,10.0,West,8.1,-,N/A,,Clear,260,2012-10-06 09:52:00
5:52 AM,26.1,21.9,84,30.21,10.0,West,8.1,-,N/A,,Clear,270,2012-10-06 10:52:00
6:52 AM,25.0,21.0,85,30.21,10.0,West,5.8,-,N/A,,Clear,270,2012-10-06 11:52:00
7:52 AM,28.9,24.1,82,30.23,10.0,West,6.9,-,N/A,,Clear,280,2012-10-06 12:52:00
9:52 AM,39.9,28.0,63,30.24,10.0,NW,16.1,21.9,N/A,,Clear,310,2012-10-06 14:52:00
10:52 AM,44.1,28.0,53,30.24,10.0,NNW,15.0,-,N/A,,Partly Cloudy,340,2012-10-06 15:52:00
11:52 AM,46.0,28.0,50,30.24,10.0,NW,12.7,23.0,N/A,,Mostly Cloudy,320,2012-10-06 16:52:00
12:52 PM,46.0,28.0,50,30.24,10.0,NW,15.0,24.2,N/A,,Mostly Cloudy,310,2012-10-06 17:52:00
1:52 PM,45.0,27.0,49,30.23,10.0,NNW,11.5,19.6,N/A,,Overcast,340,2012-10-06 18:52:00
2:52 PM,44.1,26.1,49,30.23,10.0,NW,12.7,-,N/A,,Overcast,310,2012-10-06 19:52:00
3:52 PM,44.1,27.0,51,30.23,10.0,NW,10.4,-,N/A,,Overcast,320,2012-10-06 20:52:00
4:52 PM,44.1,27.0,51,30.23,10.0,NW,11.5,-,N/A,,Overcast,320,2012-10-06 21:52:00
5:52 PM,43.0,26.1,51,30.24,10.0,NNW,6.9,-,N/A,,Overcast,330,2012-10-06 22:52:00
6:52 PM,42.1,27.0,55,30.24,10.0,NNW,4.6,-,N/A,,Overcast,330,2012-10-06 23:52:00
7:52 PM,41.0,28.0,60,30.25,10.0,NW,3.5,-,N/A,,Overcast,310,2012-10-07 00:52:00
8:52 PM,41.0,27.0,57,30.25,10.0,NW,4.6,-,N/A,,Overcast,320,2012-10-07 01:52:00
9:52 PM,41.0,27.0,57,30.25,10.0,NW,5.8,-,N/A,,Overcast,310,2012-10-07 02:52:00
10:52 PM,41.0,27.0,57,30.25,10.0,NW,6.9,-,N/A,,Overcast,320,2012-10-07 03:52:00
11:52 PM,39.9,27.0,60,30.24,10.0,NW,6.9,-,N/A,,Overcast,310,2012-10-07 04:52:00